Temperature
12 11 11 12 12 13 13 13 13 14 14 14 13 13 14 15 15 15 16 17 18 19 20 20 20 20 19 19 18 18 17 17 16 15 14 13 13 13 12 12 11 11 11 10
10 11 12 13 13 13 13 13 13 13 14 14 13 13 13 13 14 15 16 17 19 19 20 20 20 20 19 19 19 18 18 17 17 16 16 15 14 13 13 12 11 11 11 10
11 12 13 13 12 12 12 12 13 13 14 13 13 13 13 13 14 15 16 17 18 19 19 20 20 20 20 19 19 19 18 18 17 16 15 14 13 12 12 12 11 11 11 10
11 12 13 12 12 12 12 13 13 13 13 12 13 12 12 13 13 13 15 16 18 19 19 19 20 20 20 19 19 19 18 18 17 16 15 15 14 13 13 13 12 11 11 10
11 11 12 12 12 12 12 13 13 13 12 11 11 11 12 12 13 13 14 16 18 19 19 19 19 19 19 19 19 19 18 17 17 16 15 15 14 14 14 13 12 11 11 10
11 11 12 12 13 13 12 12 11 10 10 11 11 11 11 11 13 14 14 16 18 19 19 19 19 19 19 19 19 18 18 17 17 16 15 15 14 14 13 12 12 11 11 10
10 11 11 12 12 12 12 11 11 11 10 10 10 10 12 12 12 13 14 16 18 18 18 19 19 19 19 19 18 18 17 17 16 16 15 15 14 14 13 13 12 11 11 11
9 10 11 11 12 11 11 12 11 11 10 10 10 10 12 12 13 14 15 16 17 18 18 18 19 19 18 18 18 18 17 17 16 15 15 15 14 13 13 12 12 11 11 11
9 10 11 11 11 12 11 11 11 11 10 10 9 9 10 12 12 12 13 14 16 17 18 18 18 18 18 18 18 17 17 16 16 15 15 14 14 13 13 12 11 11 11 11
9 9 10 10 11 11 11 11 10 10 10 11 10 10 11 13 13 13 12 13 16 17 18 18 18 18 17 17 17 17 16 16 16 15 15 14 13 13 12 12 11 11 10 10
9 9 9 10 11 10 10 10 10 10 9 10 10 11 11 13 14 13 13 15 16 17 18 18 18 17 17 17 17 16 16 16 15 15 14 14 13 12 12 11 11 10 10 10
8 8 8 9 10 11 10 10 10 10 9 8 9 11 13 12 12 13 13 15 16 17 17 17 17 17 17 17 16 16 16 15 15 14 14 13 13 12 11 11 10 10 10 9
8 8 8 8 9 9 10 9 10 10 9 8 9 11 12 11 11 12 13 15 16 16 17 17 17 17 17 16 16 16 16 15 15 14 14 13 12 12 11 11 10 10 9 9
8 7 8 9 9 9 9 9 9 9 10 9 9 11 13 12 12 12 13 14 15 16 16 17 17 17 16 16 16 16 15 15 14 14 13 13 12 12 11 10 10 9 9 9
6 7 7 8 9 9 9 10 9 10 10 10 11 11 12 12 12 13 14 14 14 15 16 16 17 16 16 16 16 16 15 15 14 14 13 13 12 11 11 10 9 9 9 8
5 6 7 8 8 9 9 10 10 10 11 11 11 11 12 12 13 13 13 14 14 15 16 16 16 16 16 16 16 16 15 15 14 14 13 13 12 11 10 10 9 9 8 8
4 5 6 7 8 8 8 9 10 10 10 11 11 12 11 11 11 12 14 14 15 16 16 16 16 17 16 16 16 15 15 15 14 14 13 12 12 11 10 10 9 8 8 8
4 5 5 6 7 7 9 10 11 11 11 11 11 11 11 12 13 15 16 15 16 16 16 16 16 16 16 16 15 15 14 14 14 13 13 12 11 10 10 9 8 8 8 7
5 5 5 5 6 7 8 9 10 10 10 11 11 11 11 12 12 13 15 15 16 16 16 16 16 16 16 15 15 15 14 14 13 13 12 12 11 10 9 9 8 8 7 7
5 5 5 5 6 7 9 9 10 10 10 10 11 11 10 10 10 12 15 15 15 16 16 16 15 15 15 15 15 14 14 14 13 13 12 11 10 10 9 8 8 7 7 6
4 4 5 5 6 7 9 9 9 10 10 11 11 11 10 10 13 14 15 15 15 15 15 15 15 15 15 15 14 14 14 13 13 12 11 10 10 9 8 8 7 7 6 6
5 5 5 5 6 7 8 8 9 10 12 12 12 12 11 12 13 14 14 14 14 14 14 14 15 14 14 14 14 14 13 13 12 11 10 10 9 9 8 7 7 6 6 5
5 6 6 6 8 8 8 9 11 12 12 12 13 13 13 12 13 13 13 14 14 14 14 14 14 14 14 13 13 13 13 12 11 10 10 9 9 8 7 7 6 6 5 5
4 5 5 5 6 7 9 10 11 11 12 13 13 13 13 12 13 13 13 13 13 13 13 14 14 13 13 13 12 12 12 11 10 10 9 9 8 8 7 6 6 5 5 4
4 4 4 5 6 7 8 10 11 11 11 12 12 13 13 13 13 13 13 13 13 13 13 13 13 13 13 12 11 11 11 10 10 9 9 8 8 7 6 5 5 4 4 3
3 4 5 6 6 7 8 10 10 10 11 12 12 12 12 12 13 13 13 13 13 13 13 12 12 12 12 11 11 10 10 9 9 9 8 7 7 6 5 5 4 3 3 3
Wind_Speed
6 7 13 15 14 7 7 8 7 7 4 6 10 12 13 10 7 9 9 9 10 12 11 8 8 9 10 11 14 16 17 16 14 12 12 11 12 10 9 10 14 16 15 15
6 15 15 10 9 7 7 7 7 5 3 5 7 12 11 10 8 9 10 10 10 9 8 7 6 7 10 12 14 15 17 17 16 15 13 9 8 7 7 7 10 14 15 15
17 9 11 10 10 12 11 11 9 6 1 1 4 9 8 8 7 8 9 9 9 10 10 8 6 7 8 11 14 15 16 16 17 14 9 6 5 4 5 7 8 10 14 15
14 9 11 12 13 13 14 10 8 6 3 4 2 7 9 7 8 10 11 10 10 10 9 8 6 6 8 10 10 12 13 14 14 14 13 14 12 11 11 8 8 8 12 13
12 11 14 16 14 13 7 6 7 5 5 5 3 5 10 5 9 11 12 12 11 10 9 8 7 7 7 7 8 9 11 12 13 14 16 16 12 10 6 6 8 8 8 10
9 7 11 11 8 10 6 5 4 2 2 8 10 8 9 7 10 9 9 10 10 9 7 7 5 4 4 5 6 8 10 11 12 14 14 15 14 11 9 9 9 8 6 7
9 8 6 7 8 7 8 6 3 4 5 9 7 8 11 10 10 11 11 11 9 7 6 6 5 5 5 6 7 8 10 10 11 13 14 14 14 13 13 12 11 9 7 7
12 11 12 8 10 11 13 12 9 8 7 5 5 10 10 9 8 9 9 8 7 7 6 6 6 6 6 7 8 9 10 10 11 12 13 12 11 10 9 10 9 10 9 9
12 10 7 9 6 13 11 11 7 4 3 3 6 7 10 7 8 8 9 8 9 8 7 7 5 5 6 6 7 9 10 9 10 11 11 10 11 10 9 9 8 8 7 6
6 7 7 7 5 5 9 10 6 7 7 6 6 7 7 7 10 9 9 10 10 8 7 6 5 5 5 5 5 7 8 9 9 9 10 9 10 10 9 8 9 8 8 7
4 6 5 8 12 13 8 9 7 7 5 7 6 8 9 11 11 12 12 10 9 9 7 6 5 4 4 4 5 6 7 7 7 8 9 9 8 8 8 8 9 8 8 8
6 4 6 10 7 10 9 10 11 10 7 6 5 9 6 9 8 7 8 7 6 6 5 5 4 4 4 4 5 6 6 7 7 8 8 8 8 8 8 8 8 8 8 8
4 5 5 4 4 6 7 9 11 7 5 6 7 9 3 3 5 6 7 7 5 5 4 4 4 5 5 5 5 5 6 6 6 7 8 8 8 8 8 8 8 8 8 8
2 5 8 12 8 10 11 12 13 9 9 10 12 10 6 5 6 6 6 6 5 5 6 5 5 6 6 6 6 6 6 6 6 7 8 8 8 9 8 8 8 8 8 8
1 6 7 7 6 8 11 15 16 16 16 15 16 15 13 9 8 7 5 5 5 6 7 8 7 6 6 6 6 6 6 6 7 8 8 8 7 7 7 7 7 7 7 7
1 3 5 7 7 8 9 15 20 21 20 18 14 15 11 7 5 5 6 7 8 9 9 9 8 7 8 8 7 7 7 7 7 8 8 7 7 7 7 7 7 7 6 6
3 1 2 7 5 4 12 18 20 18 16 17 22 21 6 8 10 11 10 9 10 10 10 10 9 9 9 9 8 8 7 7 8 8 7 7 7 7 7 7 7 7 6 6
7 5 3 3 4 11 11 10 14 17 17 17 15 9 11 13 12 11 11 11 11 10 10 10 9 8 7 6 6 6 7 8 8 7 7 7 8 7 7 7 7 6 5 6
12 8 4 4 6 8 8 8 14 16 17 16 17 14 10 6 4 8 9 10 12 12 10 9 9 8 7 7 7 8 8 8 8 8 8 8 8 8 7 7 6 5 5 5
12 10 6 5 6 9 9 6 6 8 13 12 15 16 12 8 9 13 9 9 10 9 7 7 6 6 7 7 8 9 9 8 8 8 8 7 8 8 8 7 6 4 5 4
8 9 12 9 7 9 7 3 9 10 11 8 12 14 13 15 17 10 7 9 9 8 7 7 7 7 7 8 9 9 9 8 7 7 7 7 7 7 7 6 5 5 5 5
8 8 10 9 8 10 4 7 10 8 4 4 7 10 12 14 12 8 8 8 8 7 6 7 7 7 6 8 10 9 8 7 7 8 8 7 7 6 6 7 6 6 6 5
8 8 5 9 10 5 5 7 7 4 4 5 5 7 8 9 9 8 8 8 8 8 7 6 8 7 6 7 9 10 8 9 9 9 8 8 7 6 6 7 7 5 5 4
5 3 4 6 9 8 8 7 6 5 6 6 5 6 7 7 7 7 7 7 7 6 7 7 9 8 6 6 6 8 9 10 11 10 9 8 8 6 5 4 5 5 5 4
6 4 5 8 8 8 9 8 7 7 7 6 5 5 7 7 6 6 6 7 7 6 6 7 9 9 8 7 7 8 9 11 11 10 8 8 7 7 5 4 3 4 3 4
7 8 9 9 7 6 10 10 7 8 9 8 6 5 5 6 7 6 6 6 7 8 8 8 8 9 8 8 8 8 9 11 12 10 8 7 6 6 6 5 4 4 3 4
Wind_Direction
179 179 205 205 199 194 176 182 210 227 214 193 230 250 260 264 248 255 259 256 253 250 252 243 227 213 203 196 194 194 194 191 185 188 190 194 201 200 199 200 199 196 192 189
185 216 212 193 189 189 188 203 225 257 218 206 254 263 261 253 242 239 245 249 249 255 265 252 231 209 201 200 199 196 196 190 189 193 193 193 188 193 196 195 196 196 192 189
205 211 183 184 191 201 211 210 216 226 306 264 302 291 268 260 244 246 243 243 246 242 249 251 233 214 204 204 201 199 197 193 191 185 173 155 142 141 176 195 199 196 193 190
218 211 183 189 199 194 224 210 200 204 207 262 214 277 273 255 266 254 249 246 246 245 242 242 233 217 209 210 201 197 192 190 187 178 179 180 188 194 199 194 193 188 190 190
213 191 189 203 202 188 200 171 183 194 201 259 232 244 274 255 254 251 245 243 242 241 237 239 234 221 207 196 190 188 183 185 183 183 187 189 196 199 181 168 177 184 188 189
218 199 196 200 188 177 146 109 95 95 167 245 225 214 268 227 223 237 238 238 240 241 236 234 232 207 190 177 176 175 176 183 183 185 188 192 194 185 171 177 185 188 186 189
213 215 206 168 159 170 160 147 165 199 216 239 198 208 248 236 222 220 227 234 239 237 229 224 213 200 189 180 177 176 178 185 185 186 191 195 194 187 187 188 190 186 186 193
198 212 200 184 179 180 188 177 184 194 208 244 192 225 247 245 243 237 235 237 241 237 228 225 219 207 197 189 181 178 182 186 186 188 194 193 191 191 194 190 188 191 196 198
195 216 188 191 166 160 175 197 180 152 166 215 239 263 291 258 253 241 235 232 234 234 226 224 217 205 197 190 187 184 183 184 187 190 189 189 190 190 191 187 185 189 190 184
176 202 196 175 141 176 175 160 156 177 179 222 255 244 236 233 230 232 227 226 232 230 226 221 214 207 198 190 182 177 181 185 185 185 187 189 191 191 185 179 185 186 184 175
183 184 184 171 188 182 163 175 173 174 189 186 233 253 219 211 212 217 223 224 222 220 220 217 211 200 184 171 170 174 177 177 180 183 184 184 186 184 180 184 188 186 180 175
195 177 199 209 215 188 178 181 176 188 207 196 209 260 245 221 229 223 233 234 228 220 214 204 194 180 177 179 178 178 179 181 184 180 178 181 179 175 179 186 185 181 181 181
186 184 179 194 210 190 191 183 187 183 164 179 200 253 273 230 242 232 232 234 227 219 210 195 187 190 193 192 187 184 184 185 177 170 172 175 176 178 184 187 183 180 180 179
200 198 208 207 202 182 197 200 191 183 206 214 222 235 253 238 234 235 230 232 224 216 208 204 207 206 202 196 190 186 188 182 172 168 172 180 184 185 186 183 178 178 177 177
238 218 228 240 224 193 203 202 196 205 212 216 227 227 233 228 225 230 220 215 217 218 215 213 213 212 203 198 193 188 185 177 170 169 177 186 182 176 173 171 172 171 172 176
233 238 225 242 225 215 224 212 206 214 219 227 236 241 231 222 213 225 222 212 221 225 222 219 215 210 206 202 196 187 184 177 168 173 181 175 166 165 167 167 165 165 167 167
228 198 238 234 219 221 235 213 207 214 218 215 230 238 211 212 219 221 220 217 222 227 222 216 213 210 209 202 190 187 181 166 167 173 171 167 164 165 167 161 159 165 169 165
207 203 214 226 192 224 237 210 206 218 227 220 229 227 206 219 226 226 216 213 223 225 220 216 211 209 206 190 177 166 157 161 167 169 168 165 162 162 158 155 163 167 163 166
206 195 194 203 220 256 271 215 197 207 233 223 228 233 226 213 232 251 226 213 219 219 216 212 204 196 184 176 167 156 157 159 164 171 172 170 163 159 158 163 168 164 157 161
202 194 196 206 213 231 245 221 188 181 242 229 219 229 220 177 222 246 224 210 221 220 208 200 182 167 169 169 158 157 162 164 175 176 169 161 158 159 163 165 157 150 149 153
179 192 206 214 229 254 257 197 141 183 234 227 212 221 208 206 225 236 196 203 210 209 197 180 168 170 176 163 157 159 162 176 172 152 144 145 151 154 152 145 140 139 136 132
184 187 198 199 219 242 224 149 181 222 247 227 216 215 210 221 231 228 207 204 196 191 180 169 165 170 162 158 155 157 168 163 142 136 135 137 139 139 137 135 133 134 137 136
202 199 198 206 225 249 193 208 234 244 245 242 232 231 214 218 224 222 213 199 193 185 175 165 159 155 153 159 157 160 162 145 137 133 133 132 128 127 134 139 141 138 140 145
238 200 210 245 255 263 261 258 268 266 264 266 248 227 204 215 219 211 199 190 182 175 168 158 152 155 159 156 153 154 147 142 137 136 135 134 131 126 122 127 138 144 153 155
224 194 221 247 268 284 266 248 255 267 278 281 269 239 215 208 215 205 196 188 180 171 163 159 160 162 160 150 147 147 145 140 135 134 135 132 131 132 127 120 130 145 164 170
208 204 211 235 233 240 267 264 261 261 259 254 252 259 244 208 203 195 191 184 172 165 157 153 152 152 150 145 144 144 145 142 138 138 139 138 136 134 133 128 103 92 121 132
Height
1465 1470 1470 1468 1471 1474 1478 1482 1482 1480 1477 1479 1480 1477 1472 1469 1470 1469 1468 1467 1467 1468 1470 1472 1474 1476 1478 1481 1484 1487 1491 1494 1498 1502 1505 1508 1511 1514 1518 1521 1524 1526 1529 1531
1465 1463 1459 1464 1468 1472 1475 1479 1480 1478 1475 1477 1478 1475 1469 1465 1464 1463 1463 1462 1462 1463 1464 1466 1468 1470 1472 1474 1477 1481 1484 1488 1492 1495 1499 1503 1507 1510 1514 1517 1520 1522 1525 1527
1454 1452 1455 1461 1466 1471 1472 1475 1476 1478 1476 1476 1478 1474 1467 1460 1458 1458 1457 1457 1457 1458 1459 1461 1463 1465 1467 1469 1472 1475 1478 1482 1486 1490 1495 1499 1503 1506 1509 1512 1514 1517 1520 1523
1450 1449 1452 1456 1460 1465 1468 1467 1471 1475 1480 1483 1480 1484 1466 1460 1456 1453 1451 1451 1451 1452 1454 1456 1458 1460 1461 1464 1467 1470 1473 1477 1481 1485 1488 1492 1495 1498 1501 1505 1509 1512 1515 1518
1443 1443 1447 1450 1452 1458 1462 1463 1469 1473 1478 1483 1481 1484 1467 1458 1455 1448 1445 1444 1445 1447 1449 1451 1453 1455 1457 1460 1462 1465 1468 1471 1475 1479 1483 1486 1490 1493 1498 1501 1505 1508 1511 1513
1438 1439 1440 1442 1447 1453 1458 1465 1471 1476 1481 1484 1477 1482 1467 1457 1447 1442 1439 1439 1440 1442 1444 1446 1448 1450 1453 1455 1458 1460 1463 1466 1470 1474 1477 1481 1485 1488 1492 1496 1499 1502 1505 1508
1437 1437 1436 1438 1446 1453 1456 1466 1477 1480 1483 1478 1471 1473 1457 1442 1437 1435 1434 1434 1436 1438 1440 1441 1443 1446 1448 1451 1453 1456 1459 1462 1465 1469 1472 1476 1480 1483 1486 1490 1494 1497 1500 1502
1435 1436 1433 1433 1436 1445 1450 1455 1466 1473 1475 1474 1470 1466 1446 1433 1430 1429 1430 1431 1432 1434 1436 1437 1440 1442 1445 1447 1450 1452 1455 1458 1461 1464 1468 1471 1475 1478 1482 1485 1488 1491 1494 1497
1428 1430 1427 1427 1429 1436 1446 1450 1452 1463 1468 1470 1466 1456 1442 1429 1427 1426 1426 1427 1428 1429 1432 1434 1436 1439 1441 1444 1446 1449 1451 1454 1457 1460 1464 1467 1470 1473 1476 1480 1483 1486 1490 1493
1421 1428 1425 1426 1428 1431 1435 1442 1453 1459 1465 1465 1458 1454 1442 1427 1424 1422 1423 1423 1423 1426 1428 1430 1433 1436 1438 1441 1444 1446 1449 1451 1454 1457 1460 1462 1466 1469 1472 1475 1478 1481 1485 1488
1419 1424 1425 1424 1424 1428 1435 1440 1442 1451 1454 1458 1457 1444 1423 1418 1415 1416 1416 1417 1419 1422 1425 1427 1430 1433 1436 1438 1441 1443 1445 1448 1451 1453 1456 1458 1461 1464 1467 1470 1473 1477 1480 1483
1416 1420 1423 1421 1417 1418 1423 1428 1435 1444 1450 1452 1451 1435 1411 1411 1410 1412 1413 1415 1417 1420 1422 1425 1427 1430 1433 1435 1438 1440 1442 1445 1447 1450 1452 1454 1457 1460 1463 1466 1469 1472 1475 1478
1414 1418 1422 1423 1424 1421 1421 1423 1427 1432 1441 1449 1447 1430 1410 1410 1410 1410 1411 1413 1415 1417 1420 1422 1425 1427 1430 1432 1435 1437 1439 1442 1444 1446 1448 1450 1453 1456 1458 1461 1464 1467 1470 1473
1411 1413 1413 1411 1409 1413 1417 1419 1421 1428 1432 1436 1431 1419 1411 1409 1409 1409 1409 1410 1412 1414 1417 1419 1422 1424 1427 1429 1431 1434 1436 1438 1441 1443 1445 1447 1449 1452 1455 1457 1460 1463 1466 1468
1410 1409 1408 1405 1404 1406 1406 1409 1414 1417 1415 1419 1414 1414 1406 1405 1406 1406 1407 1408 1410 1412 1414 1416 1418 1421 1423 1426 1428 1430 1433 1435 1437 1439 1441 1443 1446 1448 1451 1453 1456 1458 1461 1463
1410 1409 1406 1404 1401 1402 1402 1402 1404 1405 1405 1407 1407 1405 1397 1400 1402 1403 1404 1405 1406 1408 1410 1412 1415 1418 1420 1422 1424 1427 1429 1431 1433 1435 1438 1440 1442 1444 1446 1449 1452 1454 1457 1459
1411 1411 1410 1403 1401 1400 1399 1392 1394 1395 1394 1396 1397 1390 1395 1398 1398 1398 1399 1400 1402 1403 1406 1408 1411 1414 1416 1419 1421 1423 1425 1428 1430 1432 1434 1436 1438 1440 1443 1445 1448 1450 1452 1454
1409 1410 1412 1407 1403 1402 1383 1378 1382 1385 1384 1385 1385 1384 1387 1388 1390 1391 1393 1395 1397 1399 1401 1404 1406 1409 1412 1415 1417 1420 1422 1424 1426 1428 1430 1432 1435 1437 1439 1441 1444 1446 1448 1450
1401 1405 1408 1406 1399 1390 1380 1374 1374 1379 1377 1376 1378 1379 1381 1384 1387 1385 1386 1389 1391 1394 1396 1399 1402 1405 1408 1410 1413 1415 1418 1420 1422 1424 1426 1429 1431 1433 1435 1438 1440 1442 1444 1446
1394 1398 1403 1401 1395 1386 1369 1365 1365 1374 1375 1367 1369 1371 1375 1381 1386 1377 1378 1383 1385 1388 1391 1394 1397 1400 1403 1405 1408 1411 1413 1415 1418 1420 1423 1425 1427 1430 1432 1434 1437 1439 1440 1442
1390 1393 1394 1395 1390 1377 1365 1362 1365 1376 1365 1358 1360 1363 1367 1370 1368 1368 1373 1376 1379 1382 1385 1388 1391 1395 1398 1401 1403 1406 1408 1411 1414 1417 1419 1422 1424 1427 1429 1431 1433 1435 1437 1439
1379 1382 1384 1386 1386 1375 1360 1362 1363 1358 1354 1354 1354 1355 1357 1358 1361 1364 1367 1369 1372 1375 1379 1382 1386 1389 1393 1396 1398 1401 1404 1407 1411 1413 1416 1419 1421 1424 1426 1428 1430 1432 1433 1435
1373 1371 1371 1371 1365 1357 1355 1354 1352 1353 1352 1350 1350 1350 1352 1353 1355 1357 1360 1363 1366 1370 1373 1377 1381 1384 1388 1391 1394 1397 1400 1404 1407 1410 1413 1416 1418 1421 1423 1425 1427 1428 1430 1431
1368 1366 1368 1365 1358 1353 1351 1349 1349 1350 1349 1348 1347 1348 1348 1349 1349 1352 1354 1357 1361 1364 1368 1372 1376 1380 1383 1387 1390 1394 1397 1400 1404 1407 1410 1413 1415 1418 1420 1422 1424 1425 1426 1427
1362 1363 1362 1360 1354 1350 1345 1345 1346 1346 1346 1345 1345 1345 1345 1345 1346 1347 1349 1352 1356 1360 1364 1368 1372 1376 1380 1383 1387 1391 1394 1397 1400 1404 1407 1410 1412 1415 1417 1419 1421 1422 1423 1424
1356 1357 1357 1352 1347 1348 1343 1341 1342 1342 1341 1341 1341 1340 1340 1342 1342 1344 1346 1349 1352 1356 1361 1365 1369 1373 1376 1380 1384 1387 1391 1394 1397 1400 1404 1407 1409 1412 1414 1416 1417 1419 1420 1421